Find Starlink 4368

NORAD ID: 53234 Int'l Des: 2022-084 Owner: SPXS Country: US Constellation: starlink operational
LEOCIRCULARRETROGRADESSO

Live Position

Loading 3D Globe...

About Starlink 4368

Description loading...

Upcoming Passes

Passes for default location (London). Set your location on the main map for personalized predictions.

Altitude History

Loading altitude history...

Two-Line Element Set

1 53234U 22084AX 26105.92492364 .00000509 00000-0 39503-4 0 9994
2 53234 97.6017 166.7802 0001042 91.2169 268.9178 15.05649456205928
Epoch: Apr 15, 2026 • Age: 13 hours

Current Status

Altitude 559.0 km
Velocity 7.59 km/s
Sub-Earth Point 59.39°N, 16.66°W
Launch Date Jul 22, 2022
Age 3.7 years
Type internet

Technical Details

Classification Payload
Mass 297.00 kg
Dry Mass 275.00 kg
Total Mass 297.00 kg
Length 0.20 m
Diameter 2.80 m
Span 9.00 m
Shape Box + pan
Manufacturer SPXS
Bus Type Starlink
Phase Status In Orbit
Owner/State SPXS/US

Most Searched